This demonstration page uses our WeatherBlox Daily Observations layout. Learn more.

Left ArrowRight Arrow

34.02893, -84.19858

Hourly Observations for June 8, 2020

Temp ( °F °C ) Dew Point ( °F °C ) Humidity (%) Winds ( mph kmh ) Pressure ( in mb ) Visibility ( mi km ) Precip ( " mm )
12:53 am 00:53 Mostly Clear 75 23.9 71 21.7 88 88 Calm 29.90 1013 10 16 0.00 0.00
1:10 am 01:10 Mostly Cloudy 75 23.9 72 22.2 90 90 Calm 29.91 1013 10 16 0.00 0.00
1:31 am 01:31 Partly Cloudy 74 23.3 72 22.2 94 94 SE 3 6 29.91 1013 10 16 0.00 0.00
1:50 am 01:50 Mostly Cloudy 75 24 72 22 89 89 VRB 3 6 29.91 1013 10 16 0.00 0.00
1:53 am 01:53 Mostly Cloudy 75 23.9 72 22.2 90 90 Calm 29.89 1012 10 16 0.00 0.00
2:53 am 02:53 Partly Cloudy 74 23.3 72 22.2 94 94 SE 5 7 29.88 1012 10 16 0.00 0.00
3:02 am 03:02 Mostly Cloudy 74 23.3 72 22.2 94 94 SE 5 7 29.90 1013 10 16 0.00 0.00
3:32 am 03:32 Partly Cloudy 73 22.8 71 21.7 94 94 SSE 3 6 29.90 1013 10 16 0.00 0.00
3:53 am 03:53 Mostly Clear 73 22.8 71 21.7 94 94 ESE 3 6 29.88 1012 10 16 0.00 0.00
4:24 am 04:24 Mostly Cloudy 73 22.8 71 21.7 94 94 Calm 29.89 1012 10 16 0.00 0.00
4:53 am 04:53 Mostly Cloudy 73 22.8 71 21.7 94 94 Calm 29.87 1012 10 16 0.00 0.00
5:00 am 05:00 Mostly Cloudy 73 22.8 71 21.7 94 94 Calm 29.89 1012 10 16 0.00 0.00
5:53 am 05:53 Cloudy 73 22.8 71 21.7 94 94 Calm 29.89 1012 10 16 0.00 0.00
6:53 am 06:53 Cloudy 73 22.8 71 21.7 94 94 VRB 3 6 29.90 1013 10 16 0.00 0.00
7:53 am 07:53 Cloudy 74 23.3 71 21.7 91 91 SE 5 7 29.91 1013 10 16 0.00 0.00
8:53 am 08:53 Cloudy 74 23.3 71 21.7 91 91 SE 6 9 29.92 1013 10 16 0.00 0.00
9:53 am 09:53 Cloudy 75 23.9 72 22.2 90 90 SSE 5 7 29.93 1014 10 16 0.00 0.00
10:53 am 10:53 Cloudy 76 24.4 72 22.2 88 88 SSE 6 9 29.93 1014 10 16 0.00 0.00
11:30 am 11:30 Partly Cloudy 78 25.6 72 22.2 82 82 SE 5 7 29.94 1014 10 16 0.00 0.00
11:53 am 11:53 Partly Cloudy 79 26.1 72 22.2 79 79 VRB 6 9 29.94 1014 10 16 0.00 0.00
12:32 pm 12:32 Mostly Cloudy 79 26.1 71 21.7 77 77 VRB 7 11 29.95 1014 10 16 0.00 0.00
12:53 pm 12:53 Mostly Cloudy 79 26.1 71 21.7 77 77 VRB 6 9 29.94 1014 10 16 0.00 0.00
1:53 pm 13:53 Mostly Cloudy 81 27.2 71 21.7 72 72 SE 9 15 29.94 1014 10 16 0.00 0.00
2:53 pm 14:53 Partly Cloudy 83 28.3 71 21.7 67 67 ESE 8 13 29.92 1013 10 16 0.00 0.00
3:05 pm 15:05 Mostly Cloudy 82 27.8 71 21.7 69 69 SE 9 15 29.92 1013 10 16 0.00 0.00
3:18 pm 15:18 Mostly Cloudy 83 28.3 71 21.7 67 67 VRB 6 9 29.91 1013 10 16 0.00 0.00
3:53 pm 15:53 Cloudy 81 27.2 71 21.7 72 72 Calm 29.90 1013 10 16 0.00 0.00
4:53 pm 16:53 Partly Cloudy 82 27.8 71 21.7 69 69 VRB 3 6 29.88 1012 10 16 0.00 0.00
5:53 pm 17:53 Partly Cloudy 83 28.3 72 22.2 70 70 VRB 5 7 29.88 1012 10 16 0.00 0.00
6:53 pm 18:53 Mostly Cloudy 82 27.8 72 22.2 72 72 VRB 5 7 29.87 1012 10 16 0.00 0.00
7:53 pm 19:53 Sunny 82 27.8 72 22.2 72 72 SE 8 13 29.87 1012 10 16 0.00 0.00
8:53 pm 20:53 Partly Cloudy 80 26.7 72 22.2 76 76 VRB 5 7 29.89 1012 10 16 0.00 0.00
9:53 pm 21:53 Mostly Cloudy 79 26.1 73 22.8 82 82 VRB 6 9 29.90 1013 10 16 0.00 0.00
10:06 pm 22:06 Mostly Cloudy with Nearby Thunderstorms 79 26.1 73 22.8 82 82 VRB 5 7 29.91 1013 10 16 0.00 0.00
10:22 pm 22:22 Partly Cloudy 79 26.1 73 22.8 82 82 SE 6 9 29.90 1013 10 16 0.00 0.00
10:53 pm 22:53 Clear 78 25.6 72 22.2 82 82 SE 6 9 29.91 1013 10 16 0.00 0.00
11:53 pm 23:53 Clear 76 24.4 73 22.8 91 91 VRB 3 6 29.91 1013 10 16 0.00 0.00

Powered by AerisWeather